Flag for U.S.A. Weather past 2 weeks in Durham, North Carolina, U.S.A.

Now
79 °F

Broken clouds.


Feels Like: 81 °F
Forecast: 67 / 84 °F
Wind: 5 mph from East

Location: Raleigh-Durham International Airport

Current Time: Jul 25, 2014 at 3:03:52 PM

Latest Report: Jul 25, 2014 at 1:51 PM


Visibility: 10 mi

Pressure: 30.03 "Hg

Humidity: 58%

Dew point: 63 °F

Location of DurhamLocation

Historic Weather in Durham — Graph

°F

Durham temperature yesterday

Maximum temperature yesterday: 87 °F (at 2:51 PM)
Minimum temperature yesterday: 69 °F (at 10:51 PM)
Average temperature yesterday: 77 °F

Past Weeks' High & Low Weather Summary

 TemperatureHumidityPressure
High97 °F (Jul 14, 2:51 PM)94% (Jul 12, 3:00 AM)30.22 "Hg (Jul 12, 3:00 AM)
Low61 °F (Jul 17, 5:51 AM)36% (Jul 18, 4:51 PM)29.76 "Hg (Jul 15, 3:51 PM)
Average77 °F73%30.04 "Hg
* Reported Jul 10 1:51 PM — Jul 25 1:51 PM, Durham, Weather by CustomWeather, © 2014

Note: Actual official high and low records may vary slightly from our data, if they occured in-between our weather recording intervals... More about our weather records

Advertising

Durham weather history for previous 24 hours

 ConditionsComfort  
Time TempWeatherWind HumidityBarometerVisibility
1:51 PM
Jul 25
79 °FBroken clouds.5 mph58%30.03 "Hg10 mi
12:51 PM81 °FBroken clouds.No wind62%30.08 "Hg10 mi
11:51 AM79 °FPartly sunny.8 mph65%30.08 "Hg10 mi
10:51 AM76 °FPartly sunny.7 mph72%30.06 "Hg10 mi
9:51 AM74 °FBroken clouds.10 mph79%30.06 "Hg10 mi
8:51 AM71 °FBroken clouds.5 mph87%30.06 "Hg9 mi
7:51 AM69 °FFog.7 mph90%30.05 "Hg1 mi
6:51 AM67 °FFog.No wind93%30.03 "Hg1 mi
5:51 AM67 °FFog.No wind93%30.01 "Hg1 mi
4:48 AM67 °FFog.No wind93%29.98 "Hg1 mi
3:51 AM67 °FPassing clouds.No wind90%29.98 "Hg10 mi
2:51 AM67 °FPartly cloudy.No wind93%29.99 "Hg10 mi
1:51 AM67 °FPassing clouds.3 mph93%29.98 "Hg10 mi
12:51 AM69 °FPassing clouds.3 mph87%29.97 "Hg10 mi
11:51 PM
Jul 24
69 °FPassing clouds.3 mph90%29.96 "Hg10 mi
10:51 PM69 °FPartly cloudy.3 mph90%29.93 "Hg10 mi
9:51 PM70 °FThunderstorms. Mostly cloudy.8 mph93%29.91 "Hg8 mi
8:51 PM70 °FStrong thunderstorms. Fog.10 mph93%29.92 "Hg1 mi
7:51 PM73 °FCloudy.6 mph88%29.91 "Hg10 mi
7:02 PM72 °FThunderstorms. Fog.9 mph88%29.86 "Hg6 mi
6:51 PM71 °FStrong thunderstorms. Fog.13 mph87%29.85 "Hg1 mi
5:51 PM86 °FBroken clouds.3 mph61%29.81 "Hg10 mi
4:51 PM84 °FBroken clouds.No wind70%29.83 "Hg10 mi
3:51 PM84 °FRain. Fog.6 mph67%29.84 "Hg3 mi
Weather by CustomWeather, © 2014

See weather overviewHow to use our weather pages